map of CUF home
Great Circle Mapper logo
CUF - Airport
Location
City:  Cuneo, Piedmont, Italy
Name:Levaldigi
ICAO / IATA:LIMZ / CUF

Details
Type:Airport (Aerodrome, Airfield)
Latitude:4432'49"N (44.547019)
Longitude:737'24"E (7.623217)
Datum:WGS 1984
Elevation:1267 ft (386 m)
Variation:1.82E (WMM2015 magnetic declination)
0.12 annual change
Runways:1
Longest:6903 × 148 ft (2104 × 45 m), paved

Time
Time Zone:UTC+1 (DST+2)
Local Time:

Weather
METAR:LIMZ 301450Z 07005KT 340V110 9999 FEW050 22/14 Q1014
TAF:LIMZ 301100Z 3012/3112 VRB05KT 8000 SCT030 SCT070
TEMPO 3014/3020 4000 TSRA

Related Locations
Nearby:
Farthest:CHT: 12231 mi / 19684 km
Waitangi [Tuuta], Chatham Islands, NZ

Find:

   beyond  
but within

Other Information
Maps:
NOTAMs:
Links:
Sources:

  
flag of Italy
flag of Piedmont
  

Sectional Chart

Flight Planning
at skyvector.com

Satellite Image

Google Maps satellite view

 

Copyright © 2004-2015 Karl L. Swartz. All rights reserved.
The Great Circle Mapper name and logo are trademarks of the Great Circle Mapper.
All other trademarks mentioned herein belong to their respective owners.
Please see credits for attibutions and further copyright information.

  Follow gcmap on Facebook Follow gcmap on Twitter Follow gcmap on Google+

hCard Microformat

Geo Microformat